Location: Central Falls
(41.8900°N, 71.3929°W)
Time: 04:41:15
(UTC+00:00)

Vanguard 2 - Pass Details

Date: 10 December 2023
Orbit: 554 x 2918 km, 32.9° (Epoch: 01 March)

Event Time Altitude Azimuth Distance (km) Brightness Sun altitude
Rises 02:50:02 0° 261° (W) 6,749 12.7 -60.5°
Reaches altitude 10° 02:54:37 10° 259° (WSW) 5,745 12.1 -61.3°
Enters shadow 03:02:13 31° 249° (WSW) 4,128 11.1 -62.4°
Maximum altitude 03:11:40 60° 185° (S) 2,795 - -63.8°
Drops below altitude 10° 03:23:57 10° 110° (ESE) 4,278 - -65.5°
Sets 03:26:50 0° 107° (ESE) 4,996 - -65.9°
